When you browse on this site, cookies collect data to enhance your experience and personalize the content and advertising you see.
Visit our Privacy Policy to learn more. By continuing to use the site, you agree to this use of cookies and data.
  • In Latvia
  • List of Countries
  • For 7 days
  • Water Temperature
  • Satellite Maps
  • Weather Map
  • Weather Widgets
  • user-avatar
    Login

    Hourly Weather Jutiapa

    Today, 18 April, Thursday

    Time Temperature Precipitation Wind Pressure Humidity
    00:00 +21°C° 0 mm 0 mps 672 mmHg 88%
    01:00 +20°C° 0 mm 0 mps 671 mmHg 88%
    02:00 +20°C° 0 mm 0 mps 671 mmHg 88%
    03:00 +20°C° 0 mm 0 mps 670 mmHg 88%
    04:00 +20°C° 0 mm 0 mps 670 mmHg 87%
    05:00 +20°C° 0 mm 0 mps 670 mmHg 86%
    06:00 +19°C° 0 mm 0 mps 670 mmHg 86%
    07:00 +24°C° 0 mm 1 mps 671 mmHg 75%
    08:00 +26°C° 0 mm 1 mps 672 mmHg 64%
    09:00 +28°C° 0 mm 2 mps 673 mmHg 54%
    10:00 +28°C° 0 mm 2 mps 673 mmHg 53%
    11:00 +29°C° 0 mm 3 mps 672 mmHg 53%
    12:00 +29°C° 0 mm 3 mps 672 mmHg 53%
    13:00 +29°C° 0 mm 3 mps 672 mmHg 54%
    14:00 +29°C° 0 mm 3 mps 671 mmHg 55%
    15:00 +28°C° 0 mm 3 mps 671 mmHg 56%
    16:00 +27°C° 0 mm 3 mps 671 mmHg 60%
    17:00 +27°C° 0 mm 3 mps 671 mmHg 64%
    18:00 +26°C° 0 mm 2 mps 670 mmHg 68%
    19:00 +25°C° 0 mm 2 mps 671 mmHg 73%
    20:00 +24°C° 0 mm 2 mps 671 mmHg 78%
    21:00 +23°C° 0 mm 1 mps 672 mmHg 83%
    22:00 +23°C° 0.1 mm 1 mps 672 mmHg 85%
    23:00 +22°C° 0.1 mm 1 mps 672 mmHg 87%

    Tomorrow, 19 April, Friday

    Time Temperature Precipitation Wind Pressure Humidity
    00:00 +22°C° 0.1 mm 1 mps 672 mmHg 89%
    01:00 +20°C° 0.3 mm 0 mps 671 mmHg 90%
    02:00 +19°C° 0.3 mm 0 mps 671 mmHg 90%
    03:00 +19°C° 0.3 mm 0 mps 671 mmHg 91%
    04:00 +19°C° 0 mm 0 mps 671 mmHg 91%
    05:00 +19°C° 0 mm 0 mps 671 mmHg 91%
    06:00 +19°C° 0 mm 0 mps 671 mmHg 91%
    07:00 +24°C° 0.1 mm 1 mps 672 mmHg 78%
    08:00 +27°C° 0.1 mm 1 mps 673 mmHg 65%
    09:00 +30°C° 0.1 mm 1 mps 675 mmHg 52%
    10:00 +30°C° 0.3 mm 1 mps 674 mmHg 51%
    11:00 +30°C° 0.3 mm 1 mps 674 mmHg 50%
    12:00 +30°C° 0.3 mm 2 mps 674 mmHg 49%
    13:00 +30°C° 0.5 mm 2 mps 673 mmHg 49%
    14:00 +30°C° 0.5 mm 2 mps 673 mmHg 49%
    15:00 +30°C° 0.5 mm 2 mps 673 mmHg 49%
    16:00 +29°C° 0.3 mm 2 mps 673 mmHg 52%
    17:00 +28°C° 0.3 mm 2 mps 673 mmHg 56%
    18:00 +27°C° 0.3 mm 3 mps 673 mmHg 59%
    19:00 +26°C° 0.2 mm 3 mps 673 mmHg 64%
    20:00 +25°C° 0.2 mm 3 mps 674 mmHg 70%
    21:00 +24°C° 0.2 mm 3 mps 674 mmHg 75%
    22:00 +22°C° 0 mm 3 mps 674 mmHg 75%
    23:00 +22°C° 0 mm 3 mps 674 mmHg 75%

    Day after tomorrow, 20 April, Saturday

    Time Temperature Precipitation Wind Pressure Humidity
    00:00 +21°C° 0 mm 3 mps 674 mmHg 75%
    01:00 +21°C° 0 mm 4 mps 674 mmHg 75%
    02:00 +20°C° 0 mm 4 mps 673 mmHg 76%
    03:00 +20°C° 0 mm 4 mps 673 mmHg 76%
    04:00 +19°C° 0 mm 4 mps 673 mmHg 75%
    05:00 +19°C° 0 mm 4 mps 673 mmHg 75%
    06:00 +19°C° 0 mm 4 mps 673 mmHg 75%
    07:00 +21°C° 0 mm 5 mps 674 mmHg 68%
    08:00 +22°C° 0 mm 5 mps 675 mmHg 61%
    09:00 +25°C° 0 mm 5 mps 676 mmHg 54%
    10:00 +26°C° 0 mm 5 mps 676 mmHg 49%
    11:00 +28°C° 0 mm 5 mps 676 mmHg 44%
    12:00 +30°C° 0 mm 5 mps 676 mmHg 39%
    13:00 +30°C° 0 mm 6 mps 675 mmHg 38%
    14:00 +30°C° 0 mm 6 mps 675 mmHg 37%
    15:00 +30°C° 0 mm 6 mps 674 mmHg 36%
    16:00 +29°C° 0 mm 5 mps 674 mmHg 39%
    17:00 +27°C° 0 mm 5 mps 674 mmHg 41%
    18:00 +26°C° 0 mm 4 mps 674 mmHg 43%
    19:00 +25°C° 0 mm 4 mps 674 mmHg 45%
    20:00 +22°C° 0 mm 3 mps 675 mmHg 47%
    21:00 +21°C° 0 mm 3 mps 675 mmHg 49%
    22:00 +21°C° 0 mm 3 mps 675 mmHg 51%
    23:00 +20°C° 0 mm 3 mps 675 mmHg 53%

    21 April, Sunday

    Time Temperature Precipitation Wind Pressure Humidity
    00:00 +20°C° 0 mm 3 mps 675 mmHg 55%
    01:00 +19°C° 0 mm 3 mps 674 mmHg 57%
    02:00 +19°C° 0 mm 2 mps 674 mmHg 58%
    03:00 +18°C° 0 mm 2 mps 673 mmHg 60%
    04:00 +18°C° 0 mm 2 mps 673 mmHg 59%
    05:00 +18°C° 0 mm 2 mps 673 mmHg 59%
    06:00 +18°C° 0 mm 2 mps 674 mmHg 59%
    07:00 +21°C° 0 mm 3 mps 674 mmHg 50%
    08:00 +24°C° 0 mm 3 mps 675 mmHg 41%
    09:00 +27°C° 0 mm 3 mps 676 mmHg 32%
    10:00 +28°C° 0 mm 3 mps 676 mmHg 30%
    11:00 +30°C° 0 mm 3 mps 676 mmHg 27%
    12:00 +33°C° 0 mm 3 mps 676 mmHg 25%
    13:00 +33°C° 0 mm 3 mps 675 mmHg 26%
    14:00 +34°C° 0 mm 3 mps 675 mmHg 26%
    15:00 +34°C° 0 mm 3 mps 674 mmHg 27%
    16:00 +31°C° 0 mm 3 mps 674 mmHg 32%
    17:00 +29°C° 0 mm 2 mps 674 mmHg 38%
    18:00 +27°C° 0 mm 2 mps 674 mmHg 44%
    19:00 +26°C° 0 mm 2 mps 674 mmHg 51%
    20:00 +24°C° 0 mm 2 mps 674 mmHg 58%
    21:00 +23°C° 0 mm 2 mps 675 mmHg 65%
    22:00 +21°C° 0 mm 2 mps 674 mmHg 69%
    23:00 +21°C° 0 mm 2 mps 674 mmHg 73%

    22 April, Monday

    Time Temperature Precipitation Wind Pressure Humidity
    00:00 +20°C° 0 mm 2 mps 674 mmHg 76%
    01:00 +20°C° 0 mm 2 mps 673 mmHg 78%
    02:00 +20°C° 0 mm 2 mps 673 mmHg 79%
    03:00 +19°C° 0 mm 2 mps 672 mmHg 81%
    04:00 +19°C° 0 mm 2 mps 672 mmHg 81%
    05:00 +19°C° 0 mm 2 mps 673 mmHg 81%
    06:00 +19°C° 0 mm 2 mps 673 mmHg 81%
    07:00 +23°C° 0 mm 2 mps 674 mmHg 70%
    08:00 +25°C° 0 mm 2 mps 675 mmHg 58%
    09:00 +28°C° 0 mm 2 mps 676 mmHg 46%
    10:00 +30°C° 0 mm 2 mps 676 mmHg 40%
    11:00 +34°C° 0 mm 2 mps 676 mmHg 34%
    12:00 +35°C° 0 mm 1 mps 675 mmHg 29%
    13:00 +35°C° 0 mm 2 mps 674 mmHg 32%
    14:00 +34°C° 0 mm 2 mps 674 mmHg 35%
    15:00 +31°C° 0 mm 2 mps 673 mmHg 38%
    16:00 +30°C° 0.1 mm 2 mps 673 mmHg 43%
    17:00 +29°C° 0.1 mm 2 mps 673 mmHg 49%
    18:00 +28°C° 0.1 mm 2 mps 673 mmHg 54%
    19:00 +26°C° 0.1 mm 1 mps 673 mmHg 60%
    20:00 +25°C° 0.1 mm 1 mps 673 mmHg 66%
    21:00 +22°C° 0.1 mm 0 mps 674 mmHg 72%
    22:00 +24°C° 0 mm 1 mps 673 mmHg 74%
    23:00 +23°C° 0 mm 1 mps 673 mmHg 77%

    23 April, Tuesday

    Time Temperature Precipitation Wind Pressure Humidity
    00:00 +23°C° 0 mm 1 mps 673 mmHg 79%
    01:00 +22°C° 0 mm 1 mps 672 mmHg 81%
    02:00 +22°C° 0 mm 1 mps 672 mmHg 82%
    03:00 +21°C° 0 mm 2 mps 671 mmHg 84%
    04:00 +21°C° 0 mm 1 mps 672 mmHg 84%
    05:00 +21°C° 0 mm 1 mps 672 mmHg 85%
    06:00 +21°C° 0 mm 1 mps 672 mmHg 85%
    07:00 +23°C° 0 mm 1 mps 673 mmHg 73%
    08:00 +26°C° 0 mm 1 mps 674 mmHg 61%
    09:00 +29°C° 0 mm 1 mps 675 mmHg 49%
    10:00 +30°C° 0 mm 1 mps 675 mmHg 43%
    11:00 +32°C° 0 mm 1 mps 675 mmHg 37%
    12:00 +34°C° 0 mm 1 mps 675 mmHg 31%
    13:00 +35°C° 0 mm 2 mps 674 mmHg 33%
    14:00 +34°C° 0 mm 2 mps 673 mmHg 35%
    15:00 +32°C° 0 mm 2 mps 673 mmHg 37%
    16:00 +31°C° 0 mm 2 mps 673 mmHg 42%
    17:00 +30°C° 0 mm 2 mps 673 mmHg 48%
    18:00 +28°C° 0 mm 2 mps 673 mmHg 53%
    19:00 +27°C° 0.2 mm 1 mps 673 mmHg 61%
    20:00 +26°C° 0.2 mm 1 mps 673 mmHg 69%
    21:00 +24°C° 0.2 mm 1 mps 673 mmHg 76%
    22:00 +24°C° 0 mm 1 mps 673 mmHg 79%
    23:00 +23°C° 0 mm 1 mps 673 mmHg 81%
    Show more